FlightSource - Aviation Photo Database

World Wide Airport Lookup


Search by ICAO
Or
Search by City

FlightSource.ca - Aviation Photo Database - Buffalo Niagara International Airport Information
Airport Identification
Name: Buffalo Niagara International Airport
ICAO: KBUF
IATA: BUF
Airport Location
City: Buffalo
Region: NY
Country: United States
Continent: North America
Latitude: 42.9405
Longitude: -78.7322
Airport Information
Type: Large Airport
Elevation: 724 Feet ASL
Flight Status: KBUF
More Info: KBUF
Airport Weather    
Metar: KBUF 280154Z 01006KT 10SM SCT065 BKN085 23/19 A2990 RMK AO2 RAB02E32 SLP122 P0000 T02280189
TAF:


Advertisement